This is the latest recevied weather packets stored in our database for station/object EA1FBN. If no packets are shown the sender has not sent any weather packets the latest 10 day(s).
| Time | Temp. | Humidity | Pressure | Rain* | Wind** | Luminosity | Snow |
|---|---|---|---|---|---|---|---|
| 1777987509 | 12.22° C | 61% | 1014.9 hPa | 0 mm | - | - | - |
| 1777987209 | 11.67° C | 63% | 1014.9 hPa | 0 mm | - | - | - |
| 1777986909 | 11.67° C | 62% | 1014.9 hPa | 0 mm | - | - | - |
| 1777986609 | 11.67° C | 61% | 1015 hPa | 0 mm | - | - | - |
| 1777986310 | 12.22° C | 60% | 1015 hPa | 0 mm | - | - | - |
| 1777986010 | 12.78° C | 57% | 1014.9 hPa | 0 mm | - | - | - |
| 1777985710 | 12.78° C | 59% | 1015 hPa | 0 mm | - | - | - |
| 1777985410 | 12.22° C | 62% | 1015 hPa | 0 mm | - | - | - |
| 1777985110 | 12.22° C | 59% | 1015.2 hPa | 0 mm | - | - | - |
| 1777984810 | 12.22° C | 60% | 1015.3 hPa | 0 mm | - | - | - |
| 1777984509 | 11.67° C | 61% | 1015.3 hPa | 0 mm | - | - | - |
| 1777984210 | 11.11° C | 62% | 1015.4 hPa | 0 mm | - | - | - |
| 1777983910 | 11.67° C | 61% | 1015.4 hPa | 0 mm | - | - | - |
| 1777983610 | 11.67° C | 63% | 1015.3 hPa | 0 mm | - | - | - |
| 1777983310 | 11.67° C | 61% | 1015.3 hPa | 0 mm | - | - | - |
| 1777983010 | 11.67° C | 63% | 1015.4 hPa | 0 mm | - | - | - |
| 1777982710 | 11.67° C | 62% | 1015.4 hPa | 0 mm | - | - | - |
| 1777982410 | 11.11° C | 64% | 1015.4 hPa | 0 mm | - | - | - |
| 1777982110 | 11.11° C | 63% | 1015.5 hPa | 0 mm | - | - | - |
| 1777981810 | 11.11° C | 61% | 1015.6 hPa | 0 mm | - | - | - |
| 1777981510 | 11.11° C | 60% | 1015.6 hPa | 0 mm | - | - | - |
| 1777981210 | 11.11° C | 62% | 1015.6 hPa | 0 mm | - | - | - |
| 1777980910 | 11.11° C | 64% | 1015.7 hPa | 0 mm | - | - | - |
| 1777980610 | 11.11° C | 63% | 1015.7 hPa | 0 mm | - | - | - |
| 1777980310 | 10.56° C | 60% | 1015.8 hPa | 0 mm | - | - | - |
* Rain latest hour (hover to see other rain measurements)
** Current wind speed in m/s (hover to see current wind gust speed)